Zurück zum Katalog

STARLINK-35052

AktivKommunikationSSO
NORAD 65540·PAYLOAD·🇺🇸 United States

Gestartet Sep 6, 2025 von Cape Canaveral Space Force Station

Loading…

Nächste Überflüge (nächste 24 Stunden)

TLE

AktuellSource: CelesTrak SupGP

Epoche: Sep 15, 2026, 02:54 UTC

1 65540C 25200W   26258.12131944  .00069688  00000+0  21629-2 0  2583
2 65540  97.2849 324.5482 0001002  84.2410 303.5951 15.33410138    17

Verfolge STARLINK-35052 in Echtzeit mit AllMySat

Download on the App Store